Location: Sternwarte auf dem Internationalen Platz Vogelsang IP
(50.5721°N, 6.4398°E)
Time: 02:52:20
(UTC+01:00)

Transit 2A Rocket - Pass Details

Date: 16 December 2025
Orbit: 581 x 903 km, 66.7° (Epoch: 14 January)

Event Time Altitude Azimuth Distance (km) Brightness Sun altitude
Rises 09:18:31 0° 230° (SW) 3,339 8.3 4.9°
Reaches altitude 10° 09:20:55 10° 235° (SW) 2,451 7.6 5.2°
Maximum altitude 09:26:34 58° 314° (NW) 1,018 5.5 5.8°
Drops below altitude 10° 09:32:32 10° 33° (NNE) 2,585 7.6 6.4°
Sets 09:35:09 0° 38° (NE) 3,535 8.3 6.6°
